Regional Weather Roundup
Issued by NWS Spokane, WA

Home | Current Version | Previous Version | Text Only | Print | Product List | Glossary On
Versions: 1 2 3 4 5 6 7 8 9 10 11 12 13 14 15 16 17 18 19 20 21 22 23 24 25 26 27 28 29 30 31 32 33 34 35 36 37 38 39 40 41 42 43 44 45 46 47 48 49 50
216
NZUS01 KOTX 260100
RWROTX

Eastern Washington/Northern Idaho Roundup
National Weather Service, Spokane WA
600 PM PDT THU MAY 25 2017

Note: "fair" indicated few or no clouds below 12,000 feet with no
significant weather and/or obstructions to visibility.

...Northeast Washington and Northern Idaho Panhandle...

CITY           SKY/WX    TMP DP  RH WIND       PRES   REMARKS
Spokane Intl   PTSUNNY   63  37  38 W10       29.84R
Spokane Downto MOSUNNY   65  40  39 SW9       29.83R
Coeur d Alene  PTSUNNY   64  40  41 W9        29.82S
Deer Park      PTSUNNY   64  37  36 SW9       29.83R

...Southeast Washington and southern Idaho Panhandle...

CITY           SKY/WX    TMP DP  RH WIND       PRES   REMARKS
Walla Walla    PTSUNNY   65  44  46 N3        29.79F
Pullman/Moscow PTSUNNY   57  41  55 NW6       29.84F
Lowell           N/A     62  40  44 VRB6      29.79F

...Columbia Basin...

CITY           SKY/WX    TMP DP  RH WIND       PRES   REMARKS
Ephrata        SUNNY     69  36  29 SE5       29.80S
Moses Lake     SUNNY     67  43  41 CALM      29.82R
Pasco          MOSUNNY   69  42  37 VRB3      29.80S
Hermiston      PTSUNNY   69  41  36 S6        29.78S
Pendleton      PTSUNNY   65  43  44 NE5       29.78F

...East Slopes Cascades...

CITY           SKY/WX    TMP DP  RH WIND       PRES   REMARKS
The Dalles     SUNNY     79  42  26 E14       29.74S
Yakima         MOSUNNY   73  43  33 SE10      29.78S
Ellensburg     PTSUNNY   72  42  34 E7        29.79S
Stampede Pass  PTSUNNY   58  41  53 VRB5      29.87R
Wenatchee      MOSUNNY   70  41  34 SE8       29.79R
Omak           LGT RAIN  62  42  47 E21G32    29.83R
Sunnyside      CLEAR     67  44  43 E6        29.79S

...Southern British Columbia...

CITY           SKY/WX    TMP DP  RH WIND       PRES   REMARKS

...Western Montana...

CITY           SKY/WX    TMP DP  RH WIND       PRES   REMARKS
Kalispell      MOCLDY    62  36  37 CALM      29.79S
Missoula       PTSUNNY   61  32  33 NE7       29.79S

...Neighboring Cities...

CITY           SKY/WX    TMP DP  RH WIND       PRES   REMARKS
Seattle        MOSUNNY   70  46  42 N6        29.84S
Portland       MOSUNNY   73  44  35 NW8       29.77S
Boise          PTSUNNY   64  31  28 W9        29.71F
Great Falls    CLOUDY    53  36  52 NW7       29.83R



USA.gov is the U.S. government's official web portal to all federal, state and local government web resources and services.